Hourly Weather Bolshoe Dumchino

Today, 31 July, Saturday

Time Temperature Precipitation Wind Pressure Humidity
00:00 +18°C° 0 mm 3 mps 736 mmHg 84%
01:00 +18°C° 0 mm 3 mps 736 mmHg 85%
02:00 +17°C° 0 mm 3 mps 736 mmHg 86%
03:00 +17°C° 0 mm 3 mps 736 mmHg 85%
04:00 +17°C° 0 mm 3 mps 736 mmHg 84%
05:00 +17°C° 0 mm 3 mps 736 mmHg 83%
06:00 +19°C° 0 mm 3 mps 736 mmHg 77%
07:00 +20°C° 0 mm 3 mps 737 mmHg 72%
08:00 +22°C° 0 mm 3 mps 737 mmHg 66%
09:00 +23°C° 0 mm 4 mps 737 mmHg 62%
10:00 +25°C° 0 mm 5 mps 737 mmHg 58%
11:00 +26°C° 0 mm 5 mps 737 mmHg 54%
12:00 +27°C° 0 mm 6 mps 737 mmHg 50%
13:00 +28°C° 0 mm 6 mps 737 mmHg 47%
14:00 +29°C° 0 mm 7 mps 737 mmHg 43%
15:00 +29°C° 0 mm 6 mps 737 mmHg 46%
16:00 +28°C° 0 mm 5 mps 737 mmHg 49%
17:00 +27°C° 0 mm 5 mps 737 mmHg 51%
18:00 +25°C° 0 mm 4 mps 737 mmHg 56%
19:00 +22°C° 0 mm 3 mps 738 mmHg 62%
20:00 +20°C° 0 mm 2 mps 738 mmHg 67%
21:00 +20°C° 0 mm 2 mps 738 mmHg 68%
22:00 +19°C° 0 mm 2 mps 738 mmHg 68%
23:00 +20°C° 0 mm 1 mps 739 mmHg 69%

Tomorrow, 1 August, Sunday

Time Temperature Precipitation Wind Pressure Humidity
00:00 +19°C° 0 mm 1 mps 739 mmHg 70%
01:00 +18°C° 0 mm 2 mps 739 mmHg 71%
02:00 +18°C° 0 mm 2 mps 739 mmHg 72%
03:00 +18°C° 0 mm 2 mps 739 mmHg 73%
04:00 +18°C° 0 mm 2 mps 739 mmHg 73%
05:00 +18°C° 0 mm 2 mps 739 mmHg 73%
06:00 +21°C° 0 mm 3 mps 739 mmHg 66%
07:00 +23°C° 0 mm 4 mps 739 mmHg 60%
08:00 +26°C° 0 mm 4 mps 739 mmHg 54%
09:00 +28°C° 0 mm 5 mps 739 mmHg 49%
10:00 +30°C° 0 mm 5 mps 739 mmHg 45%
11:00 +32°C° 0 mm 5 mps 739 mmHg 41%
12:00 +32°C° 0 mm 6 mps 739 mmHg 40%
13:00 +33°C° 0 mm 6 mps 739 mmHg 38%
14:00 +33°C° 0 mm 6 mps 739 mmHg 37%
15:00 +33°C° 0 mm 5 mps 738 mmHg 39%
16:00 +32°C° 0 mm 4 mps 738 mmHg 42%
17:00 +31°C° 0 mm 3 mps 738 mmHg 45%
18:00 +29°C° 0 mm 3 mps 738 mmHg 49%
19:00 +27°C° 0 mm 3 mps 738 mmHg 52%
20:00 +26°C° 0 mm 2 mps 737 mmHg 56%
21:00 +25°C° 0 mm 2 mps 738 mmHg 58%
22:00 +24°C° 0 mm 2 mps 738 mmHg 61%
23:00 +23°C° 0 mm 2 mps 738 mmHg 64%

Day after tomorrow, 2 August, Monday

Time Temperature Precipitation Wind Pressure Humidity
00:00 +21°C° 0 mm 2 mps 738 mmHg 70%
01:00 +20°C° 0 mm 2 mps 738 mmHg 76%
02:00 +20°C° 0 mm 2 mps 737 mmHg 82%
03:00 +20°C° 0 mm 2 mps 737 mmHg 82%
04:00 +21°C° 0 mm 1 mps 737 mmHg 81%
05:00 +22°C° 0 mm 1 mps 737 mmHg 81%
06:00 +23°C° 0.1 mm 2 mps 737 mmHg 74%
07:00 +25°C° 0.1 mm 2 mps 737 mmHg 68%
08:00 +26°C° 0.1 mm 3 mps 737 mmHg 62%
09:00 +28°C° 0 mm 3 mps 737 mmHg 57%
10:00 +30°C° 0 mm 4 mps 737 mmHg 51%
11:00 +32°C° 0 mm 5 mps 736 mmHg 46%
12:00 +33°C° 0 mm 5 mps 736 mmHg 46%
13:00 +33°C° 0 mm 6 mps 736 mmHg 45%
14:00 +33°C° 0 mm 6 mps 735 mmHg 45%
15:00 +33°C° 0 mm 6 mps 735 mmHg 45%
16:00 +32°C° 0 mm 6 mps 734 mmHg 45%
17:00 +32°C° 0 mm 6 mps 734 mmHg 45%
18:00 +28°C° 0.7 mm 5 mps 734 mmHg 55%
19:00 +25°C° 0.7 mm 5 mps 734 mmHg 65%
20:00 +20°C° 0.7 mm 4 mps 735 mmHg 75%
21:00 +20°C° 0.2 mm 4 mps 735 mmHg 80%
22:00 +20°C° 0.2 mm 4 mps 734 mmHg 85%
23:00 +20°C° 0.2 mm 4 mps 734 mmHg 89%

3 August, Tuesday

Time Temperature Precipitation Wind Pressure Humidity
00:00 +20°C° 0 mm 5 mps 734 mmHg 89%
01:00 +19°C° 0 mm 5 mps 734 mmHg 89%
02:00 +19°C° 0 mm 5 mps 734 mmHg 89%
03:00 +19°C° 0 mm 5 mps 734 mmHg 91%
04:00 +17°C° 0 mm 5 mps 735 mmHg 92%
05:00 +18°C° 0 mm 4 mps 735 mmHg 93%
06:00 +18°C° 0.4 mm 4 mps 735 mmHg 93%
07:00 +18°C° 0.4 mm 4 mps 735 mmHg 92%
08:00 +18°C° 0.4 mm 3 mps 735 mmHg 92%
09:00 +19°C° 0.3 mm 4 mps 736 mmHg 87%
10:00 +20°C° 0.3 mm 4 mps 736 mmHg 83%
11:00 +21°C° 0.3 mm 4 mps 736 mmHg 79%
12:00 +21°C° 0.7 mm 5 mps 736 mmHg 79%
13:00 +20°C° 0.7 mm 5 mps 736 mmHg 80%
14:00 +20°C° 0.7 mm 6 mps 737 mmHg 80%
15:00 +20°C° 0.1 mm 6 mps 737 mmHg 77%
16:00 +20°C° 0.1 mm 5 mps 737 mmHg 73%
17:00 +20°C° 0.1 mm 5 mps 738 mmHg 70%
18:00 +19°C° 0.1 mm 4 mps 738 mmHg 76%
19:00 +17°C° 0.1 mm 4 mps 739 mmHg 82%
20:00 +16°C° 0.1 mm 3 mps 739 mmHg 89%
21:00 +14°C° 0 mm 3 mps 739 mmHg 90%
22:00 +14°C° 0 mm 3 mps 740 mmHg 92%
23:00 +13°C° 0 mm 3 mps 740 mmHg 93%

4 August, Wednesday

Time Temperature Precipitation Wind Pressure Humidity
00:00 +13°C° 0 mm 3 mps 740 mmHg 93%
01:00 +13°C° 0 mm 3 mps 740 mmHg 93%
02:00 +13°C° 0 mm 3 mps 740 mmHg 94%
03:00 +14°C° 0 mm 2 mps 740 mmHg 93%
04:00 +14°C° 0 mm 2 mps 741 mmHg 92%
05:00 +14°C° 0 mm 2 mps 741 mmHg 91%
06:00 +16°C° 0 mm 2 mps 741 mmHg 82%
07:00 +18°C° 0 mm 3 mps 741 mmHg 74%
08:00 +20°C° 0 mm 3 mps 742 mmHg 66%
09:00 +21°C° 0 mm 3 mps 742 mmHg 61%
10:00 +22°C° 0 mm 3 mps 742 mmHg 56%
11:00 +24°C° 0 mm 3 mps 742 mmHg 51%
12:00 +24°C° 0 mm 3 mps 742 mmHg 50%
13:00 +24°C° 0 mm 3 mps 742 mmHg 50%
14:00 +24°C° 0 mm 2 mps 742 mmHg 50%
15:00 +24°C° 0 mm 2 mps 742 mmHg 52%
16:00 +23°C° 0 mm 2 mps 742 mmHg 55%
17:00 +23°C° 0 mm 1 mps 742 mmHg 57%
18:00 +22°C° 0 mm 1 mps 742 mmHg 58%
19:00 +22°C° 0 mm 1 mps 743 mmHg 59%
20:00 +21°C° 0 mm 1 mps 743 mmHg 59%
21:00 +20°C° 0 mm 1 mps 743 mmHg 60%
22:00 +20°C° 0 mm 1 mps 743 mmHg 60%
23:00 +20°C° 0 mm 1 mps 743 mmHg 61%

5 August, Thursday

Time Temperature Precipitation Wind Pressure Humidity
00:00 +20°C° 0 mm 1 mps 743 mmHg 61%
01:00 +19°C° 0 mm 1 mps 743 mmHg 60%
02:00 +19°C° 0 mm 1 mps 743 mmHg 60%
03:00 +19°C° 0 mm 1 mps 743 mmHg 60%
04:00 +19°C° 0 mm 1 mps 743 mmHg 60%
05:00 +18°C° 0 mm 2 mps 743 mmHg 60%
06:00 +19°C° 0 mm 2 mps 743 mmHg 58%
07:00 +20°C° 0 mm 2 mps 743 mmHg 56%
08:00 +21°C° 0 mm 2 mps 743 mmHg 55%
09:00 +23°C° 0 mm 2 mps 743 mmHg 49%
10:00 +25°C° 0 mm 2 mps 743 mmHg 44%
11:00 +26°C° 0 mm 2 mps 743 mmHg 39%
12:00 +26°C° 0 mm 2 mps 743 mmHg 39%
13:00 +27°C° 0 mm 1 mps 742 mmHg 38%
14:00 +27°C° 0 mm 1 mps 742 mmHg 37%
15:00 +26°C° 0 mm 1 mps 742 mmHg 41%
16:00 +26°C° 0 mm 2 mps 742 mmHg 45%
17:00 +25°C° 0 mm 2 mps 741 mmHg 48%
18:00 +24°C° 0 mm 3 mps 741 mmHg 49%
19:00 +22°C° 0 mm 3 mps 741 mmHg 49%
20:00 +21°C° 0 mm 3 mps 741 mmHg 50%
21:00 +21°C° 0 mm 3 mps 740 mmHg 49%
22:00 +20°C° 0 mm 4 mps 740 mmHg 48%
23:00 +20°C° 0 mm 4 mps 740 mmHg 47%
Show more

We Need Your Consent

Meteoprog and our Service Providers may store and access personal data such as cookies, device identifiers or other similar technologies on your device and process such data to personalise content and ads, as well as provide social media features and to analyse the traffic.

  • Store and/or access information on your device

    Cookies, device identifiers or other information can be stored or accessed on your device for the purposes indicated above.

  • Personalised ads and content, ad and content measurement, audience insights, and products development

    Ads and content can be personalised based on a profile. More data can be added to better personalise ads and content. Ad and content performance can be measured. Insights about the audience who saw the ads and content can be derived. Such data can be used to develop or improve user’s experience, systems and software.

By clicking ‘I Agree’ you will allow the use of indicated cookies, device identifiers, web beacons or other similar technologies. Your settings can be changed in the browser on your device.

For certain purposes, legitimate interests may be relied on, rather than consent. You can read more about this in our Privacy and Cookie Policy.